Time,TemperatureF,DewpointF,PressureIn,WindDirection,WindDirectionDegrees,WindSpeedMPH,WindSpeedGustMPH,Humidity,HourlyPrecipIn,Conditions,Clouds,dailyrainin,SoftwareType,DateUTC
2013-07-26 00:01:00,76.0,68.6,30.07,NNE,26,0.0,1.0,78,0.00,,,0.00,WeatherCatV1.02B3,2013-07-26 05:01:00,
2013-07-26 00:06:00,75.9,68.9,30.07,NE,43,0.0,0.0,79,0.00,,,0.00,WeatherCatV1.02B3,2013-07-26 05:06:00,
2013-07-26 00:11:00,75.7,68.7,30.07,NE,38,0.0,8.0,79,0.00,,,0.00,WeatherCatV1.02B3,2013-07-26 05:11:00,
2013-07-26 00:16:00,75.5,68.5,30.07,NE,38,0.0,0.0,79,0.00,,,0.00,WeatherCatV1.02B3,2013-07-26 05:16:00,
2013-07-26 00:21:00,75.4,68.4,30.07,East,82,0.0,2.0,79,0.00,,,0.00,WeatherCatV1.02B3,2013-07-26 05:21:00,
2013-07-26 00:26:00,75.2,68.2,30.07,East,84,0.0,0.0,79,0.00,,,0.00,WeatherCatV1.02B3,2013-07-26 05:26:00,
2013-07-26 00:31:00,75.1,68.1,30.07,NE,49,0.0,1.0,79,0.00,,,0.00,WeatherCatV1.02B3,2013-07-26 05:31:00,
2013-07-26 00:36:00,74.9,67.9,30.07,NE,49,0.0,1.0,79,0.00,,,0.00,WeatherCatV1.02B3,2013-07-26 05:36:00,
2013-07-26 00:41:00,74.8,67.8,30.07,NE,44,0.0,1.0,79,0.00,,,0.00,WeatherCatV1.02B3,2013-07-26 05:41:00,
2013-07-26 00:46:00,74.6,67.3,30.07,North,355,0.0,2.0,78,0.00,,,0.00,WeatherCatV1.02B3,2013-07-26 05:46:00,
2013-07-26 00:51:00,74.5,67.2,30.07,NNE,27,0.0,0.0,78,0.00,,,0.00,WeatherCatV1.02B3,2013-07-26 05:51:00,
2013-07-26 00:56:00,74.4,67.1,30.07,NNE,27,0.0,0.0,78,0.00,,,0.00,WeatherCatV1.02B3,2013-07-26 05:56:00,
2013-07-26 01:01:00,74.2,67.3,30.07,NNE,22,1.0,2.0,79,0.00,,,0.00,WeatherCatV1.02B3,2013-07-26 06:01:00,
2013-07-26 01:06:00,74.1,67.2,30.06,NNE,22,0.0,0.0,79,0.00,,,0.00,WeatherCatV1.02B3,2013-07-26 06:06:00,
2013-07-26 01:11:00,73.9,67.0,30.06,NNE,22,0.0,0.0,79,0.00,,,0.00,WeatherCatV1.02B3,2013-07-26 06:11:00,
2013-07-26 01:16:00,73.8,67.2,30.06,East,84,0.0,0.0,80,0.00,,,0.00,WeatherCatV1.02B3,2013-07-26 06:16:00,
2013-07-26 01:21:00,73.7,67.1,30.06,East,84,0.0,0.0,80,0.00,,,0.00,WeatherCatV1.02B3,2013-07-26 06:21:00,
2013-07-26 01:26:00,73.6,67.0,30.06,East,84,0.0,0.0,80,0.00,,,0.00,WeatherCatV1.02B3,2013-07-26 06:26:00,
2013-07-26 01:31:00,73.4,67.2,30.06,ENE,74,0.0,0.0,81,0.00,,,0.00,WeatherCatV1.02B3,2013-07-26 06:31:00,
2013-07-26 01:36:00,73.3,67.1,30.06,ENE,74,0.0,0.0,81,0.00,,,0.00,WeatherCatV1.02B3,2013-07-26 06:36:00,
2013-07-26 01:41:00,73.2,67.0,30.06,ENE,74,0.0,0.0,81,0.00,,,0.00,WeatherCatV1.02B3,2013-07-26 06:41:00,
2013-07-26 01:46:00,73.0,66.8,30.06,ENE,74,0.0,0.0,81,0.00,,,0.00,WeatherCatV1.02B3,2013-07-26 06:46:00,
2013-07-26 01:51:00,72.9,67.1,30.06,ENE,74,0.0,0.0,82,0.00,,,0.00,WeatherCatV1.02B3,2013-07-26 06:51:00,
2013-07-26 01:56:00,72.8,66.6,30.06,ENE,74,0.0,0.0,81,0.00,,,0.00,WeatherCatV1.02B3,2013-07-26 06:56:00,
2013-07-26 02:01:00,72.7,66.5,30.06,ENE,74,0.0,0.0,81,0.00,,,0.00,WeatherCatV1.02B3,2013-07-26 07:01:00,
2013-07-26 02:06:00,72.6,66.4,30.06,ENE,74,0.0,0.0,81,0.00,,,0.00,WeatherCatV1.02B3,2013-07-26 07:06:00,
2013-07-26 02:11:00,72.5,66.7,30.06,ENE,74,0.0,0.0,82,0.00,,,0.00,WeatherCatV1.02B3,2013-07-26 07:11:00,
2013-07-26 02:16:00,72.4,66.6,30.06,ENE,74,0.0,0.0,82,0.00,,,0.00,WeatherCatV1.02B3,2013-07-26 07:16:00,
2013-07-26 02:21:00,72.3,66.5,30.05,ENE,74,0.0,0.0,82,0.00,,,0.00,WeatherCatV1.02B3,2013-07-26 07:21:00,
2013-07-26 02:26:00,72.3,66.5,30.05,ENE,74,0.0,0.0,82,0.00,,,0.00,WeatherCatV1.02B3,2013-07-26 07:26:00,
2013-07-26 02:31:00,72.2,66.7,30.05,ENE,74,0.0,0.0,83,0.00,,,0.00,WeatherCatV1.02B3,2013-07-26 07:31:00,
2013-07-26 02:36:00,72.1,66.6,30.05,ENE,74,0.0,0.0,83,0.00,,,0.00,WeatherCatV1.02B3,2013-07-26 07:36:00,
2013-07-26 02:41:00,72.0,66.5,30.05,ENE,74,0.0,0.0,83,0.00,,,0.00,WeatherCatV1.02B3,2013-07-26 07:41:00,
2013-07-26 02:46:00,71.9,66.4,30.05,ENE,74,0.0,0.0,83,0.00,,,0.00,WeatherCatV1.02B3,2013-07-26 07:46:00,
2013-07-26 02:51:00,71.8,66.7,30.05,ENE,74,0.0,0.0,84,0.00,,,0.00,WeatherCatV1.02B3,2013-07-26 07:51:00,
2013-07-26 02:56:00,71.7,66.6,30.05,ENE,74,0.0,0.0,84,0.00,,,0.00,WeatherCatV1.02B3,2013-07-26 07:56:00,
2013-07-26 03:01:00,71.6,66.8,30.05,ENE,74,0.0,0.0,85,0.00,,,0.00,WeatherCatV1.02B3,2013-07-26 08:01:00,
2013-07-26 03:06:00,71.4,66.6,30.05,ENE,74,0.0,0.0,85,0.00,,,0.00,WeatherCatV1.02B3,2013-07-26 08:06:00,
2013-07-26 03:11:00,71.4,66.6,30.05,ENE,74,0.0,0.0,85,0.00,,,0.00,WeatherCatV1.02B3,2013-07-26 08:11:00,
2013-07-26 03:16:00,71.3,66.9,30.05,ENE,74,0.0,1.0,86,0.00,,,0.00,WeatherCatV1.02B3,2013-07-26 08:16:00,
2013-07-26 03:21:00,71.5,67.1,30.05,ENE,74,0.0,0.0,86,0.00,,,0.00,WeatherCatV1.02B3,2013-07-26 08:21:00,
2013-07-26 03:26:00,71.6,67.2,30.05,ENE,74,0.0,0.0,86,0.00,,,0.00,WeatherCatV1.02B3,2013-07-26 08:26:00,
2013-07-26 03:31:00,71.6,67.2,30.05,ENE,74,0.0,0.0,86,0.00,,,0.00,WeatherCatV1.02B3,2013-07-26 08:31:00,
2013-07-26 03:36:00,71.6,67.2,30.06,ENE,74,0.0,0.0,86,0.00,,,0.00,WeatherCatV1.02B3,2013-07-26 08:36:00,
2013-07-26 03:41:00,71.6,67.2,30.06,ENE,74,0.0,0.0,86,0.00,,,0.00,WeatherCatV1.02B3,2013-07-26 08:41:00,
2013-07-26 03:46:00,71.7,67.3,30.06,ENE,74,0.0,0.0,86,0.00,,,0.00,WeatherCatV1.02B3,2013-07-26 08:46:00,
2013-07-26 03:51:00,71.6,67.5,30.05,ENE,74,0.0,1.0,87,0.00,,,0.00,WeatherCatV1.02B3,2013-07-26 08:51:00,
2013-07-26 03:56:00,71.6,67.5,30.05,ENE,74,0.0,0.0,87,0.00,,,0.00,WeatherCatV1.02B3,2013-07-26 08:56:00,
2013-07-26 04:01:00,71.6,67.5,30.06,ENE,74,0.0,0.0,87,0.00,,,0.00,WeatherCatV1.02B3,2013-07-26 09:01:00,
2013-07-26 04:06:00,71.6,67.5,30.06,ENE,74,0.0,0.0,87,0.00,,,0.00,WeatherCatV1.02B3,2013-07-26 09:06:00,
2013-07-26 04:11:00,71.5,67.4,30.07,ENE,74,0.0,0.0,87,0.00,,,0.00,WeatherCatV1.02B3,2013-07-26 09:11:00,
2013-07-26 04:16:00,71.5,67.4,30.07,ENE,74,0.0,0.0,87,0.00,,,0.00,WeatherCatV1.02B3,2013-07-26 09:16:00,
2013-07-26 04:21:00,71.4,67.3,30.06,ENE,74,0.0,0.0,87,0.00,,,0.00,WeatherCatV1.02B3,2013-07-26 09:21:00,
2013-07-26 04:26:00,71.3,67.2,30.06,ENE,74,0.0,0.0,87,0.00,,,0.00,WeatherCatV1.02B3,2013-07-26 09:26:00,
2013-07-26 04:31:00,71.2,67.1,30.06,ENE,74,0.0,0.0,87,0.00,,,0.00,WeatherCatV1.02B3,2013-07-26 09:31:00,
2013-07-26 04:36:00,71.0,67.3,30.06,ENE,74,0.0,0.0,88,0.00,,,0.00,WeatherCatV1.02B3,2013-07-26 09:36:00,
2013-07-26 04:41:00,71.0,67.3,30.06,ENE,74,0.0,0.0,88,0.00,,,0.00,WeatherCatV1.02B3,2013-07-26 09:41:00,
2013-07-26 04:46:00,71.0,67.3,30.06,ENE,74,0.0,0.0,88,0.00,,,0.00,WeatherCatV1.02B3,2013-07-26 09:46:00,
2013-07-26 04:51:00,70.9,67.2,30.06,ENE,74,0.0,0.0,88,0.00,,,0.00,WeatherCatV1.02B3,2013-07-26 09:51:00,
2013-07-26 04:56:00,70.8,67.1,30.06,ENE,74,0.0,0.0,88,0.00,,,0.00,WeatherCatV1.02B3,2013-07-26 09:56:00,
2013-07-26 05:01:00,70.7,67.0,30.06,ENE,74,0.0,0.0,88,0.00,,,0.00,WeatherCatV1.02B3,2013-07-26 10:01:00,
2013-07-26 05:06:00,70.5,66.8,30.06,ENE,74,0.0,0.0,88,0.00,,,0.00,WeatherCatV1.02B3,2013-07-26 10:06:00,
2013-07-26 05:11:00,70.3,66.6,30.06,ENE,74,0.0,0.0,88,0.00,,,0.00,WeatherCatV1.02B3,2013-07-26 10:11:00,
2013-07-26 05:16:00,70.1,66.4,30.06,ENE,74,0.0,0.0,88,0.00,,,0.00,WeatherCatV1.02B3,2013-07-26 10:16:00,
2013-07-26 05:21:00,69.9,66.5,30.06,ENE,74,0.0,0.0,89,0.00,,,0.00,WeatherCatV1.02B3,2013-07-26 10:21:00,
2013-07-26 05:26:00,69.8,66.4,30.06,ENE,74,0.0,0.0,89,0.00,,,0.00,WeatherCatV1.02B3,2013-07-26 10:26:00,
2013-07-26 05:31:00,69.5,66.1,30.07,ENE,74,0.0,0.0,89,0.00,,,0.00,WeatherCatV1.02B3,2013-07-26 10:31:00,
2013-07-26 05:36:00,69.3,65.9,30.06,ENE,74,0.0,0.0,89,0.00,,,0.00,WeatherCatV1.02B3,2013-07-26 10:36:00,
2013-07-26 05:41:00,69.1,65.7,30.06,ENE,74,0.0,0.0,89,0.00,,,0.00,WeatherCatV1.02B3,2013-07-26 10:41:00,
2013-07-26 05:46:00,68.9,65.5,30.06,ENE,74,0.0,0.0,89,0.00,,,0.00,WeatherCatV1.02B3,2013-07-26 10:46:00,
2013-07-26 05:51:00,68.7,65.6,30.06,ENE,74,0.0,0.0,90,0.00,,,0.00,WeatherCatV1.02B3,2013-07-26 10:51:00,
2013-07-26 05:56:00,68.6,65.5,30.07,ENE,74,0.0,0.0,90,0.00,,,0.00,WeatherCatV1.02B3,2013-07-26 10:56:00,
2013-07-26 06:01:00,68.5,65.4,30.07,ENE,74,0.0,0.0,90,0.00,,,0.00,WeatherCatV1.02B3,2013-07-26 11:01:00,
2013-07-26 06:06:00,68.3,65.2,30.08,ENE,74,0.0,0.0,90,0.00,,,0.00,WeatherCatV1.02B3,2013-07-26 11:06:00,
2013-07-26 06:11:00,68.2,65.1,30.08,ENE,74,0.0,0.0,90,0.00,,,0.00,WeatherCatV1.02B3,2013-07-26 11:11:00,
2013-07-26 06:16:00,68.1,65.4,30.08,ENE,74,0.0,0.0,91,0.00,,,0.00,WeatherCatV1.02B3,2013-07-26 11:16:00,
2013-07-26 06:21:00,68.1,65.4,30.08,ENE,74,0.0,0.0,91,0.00,,,0.00,WeatherCatV1.02B3,2013-07-26 11:21:00,
2013-07-26 06:26:00,68.0,65.3,30.08,ENE,74,0.0,0.0,91,0.00,,,0.00,WeatherCatV1.02B3,2013-07-26 11:26:00,
2013-07-26 06:31:00,68.0,65.6,30.08,ENE,74,0.0,0.0,92,0.00,,,0.00,WeatherCatV1.02B3,2013-07-26 11:31:00,
2013-07-26 06:36:00,67.9,65.5,30.07,ENE,74,0.0,0.0,92,0.00,,,0.00,WeatherCatV1.02B3,2013-07-26 11:36:00,
2013-07-26 06:41:00,67.9,65.5,30.08,ENE,74,0.0,0.0,92,0.00,,,0.00,WeatherCatV1.02B3,2013-07-26 11:41:00,
2013-07-26 06:46:00,67.8,65.4,30.08,ENE,74,0.0,0.0,92,0.00,,,0.00,WeatherCatV1.02B3,2013-07-26 11:46:00,
2013-07-26 06:51:00,67.7,65.3,30.08,ENE,74,0.0,0.0,92,0.00,,,0.00,WeatherCatV1.02B3,2013-07-26 11:51:00,
2013-07-26 06:56:00,67.6,65.2,30.08,ENE,74,0.0,0.0,92,0.00,,,0.00,WeatherCatV1.02B3,2013-07-26 11:56:00,
2013-07-26 07:01:00,67.7,65.3,30.08,ENE,74,0.0,0.0,92,0.00,,,0.00,WeatherCatV1.02B3,2013-07-26 12:01:00,
2013-07-26 07:06:00,67.8,65.4,30.08,ENE,74,0.0,0.0,92,0.00,,,0.00,WeatherCatV1.02B3,2013-07-26 12:06:00,
2013-07-26 07:11:00,67.9,65.8,30.08,ENE,74,0.0,0.0,93,0.00,,,0.00,WeatherCatV1.02B3,2013-07-26 12:11:00,
2013-07-26 07:16:00,68.2,66.1,30.08,ENE,74,0.0,0.0,93,0.00,,,0.00,WeatherCatV1.02B3,2013-07-26 12:16:00,
2013-07-26 07:21:00,68.6,66.5,30.08,ENE,74,0.0,0.0,93,0.00,,,0.00,WeatherCatV1.02B3,2013-07-26 12:21:00,
2013-07-26 07:26:00,68.9,66.8,30.09,ENE,74,0.0,0.0,93,0.00,,,0.00,WeatherCatV1.02B3,2013-07-26 12:26:00,
2013-07-26 07:31:00,69.3,67.2,30.08,ENE,74,0.0,0.0,93,0.00,,,0.00,WeatherCatV1.02B3,2013-07-26 12:31:00,
2013-07-26 07:36:00,69.6,67.5,30.08,ENE,74,0.0,0.0,93,0.00,,,0.00,WeatherCatV1.02B3,2013-07-26 12:36:00,
2013-07-26 07:41:00,69.8,67.7,30.09,ENE,74,0.0,0.0,93,0.00,,,0.00,WeatherCatV1.02B3,2013-07-26 12:41:00,
2013-07-26 07:46:00,70.2,68.1,30.08,ENE,74,0.0,0.0,93,0.00,,,0.00,WeatherCatV1.02B3,2013-07-26 12:46:00,
2013-07-26 07:51:00,70.4,68.0,30.08,ENE,73,0.0,0.0,92,0.00,,,0.00,WeatherCatV1.02B3,2013-07-26 12:51:00,
2013-07-26 07:56:00,70.7,67.9,30.08,ENE,73,0.0,0.0,91,0.00,,,0.00,WeatherCatV1.02B3,2013-07-26 12:56:00,
2013-07-26 08:01:00,71.0,68.2,30.08,ENE,73,0.0,0.0,91,0.00,,,0.00,WeatherCatV1.02B3,2013-07-26 13:01:00,
2013-07-26 08:06:00,71.3,68.2,30.08,ENE,73,0.0,0.0,90,0.00,,,0.00,WeatherCatV1.02B3,2013-07-26 13:06:00,
2013-07-26 08:11:00,71.6,68.5,30.08,ENE,73,0.0,0.0,90,0.00,,,0.00,WeatherCatV1.02B3,2013-07-26 13:11:00,
2013-07-26 08:16:00,72.0,68.9,30.08,ENE,73,0.0,0.0,90,0.00,,,0.00,WeatherCatV1.02B3,2013-07-26 13:16:00,
2013-07-26 08:21:00,72.4,69.0,30.08,ENE,73,0.0,0.0,89,0.00,,,0.00,WeatherCatV1.02B3,2013-07-26 13:21:00,
2013-07-26 08:26:00,72.9,69.5,30.08,ENE,73,0.0,0.0,89,0.00,,,0.00,WeatherCatV1.02B3,2013-07-26 13:26:00,
2013-07-26 08:31:00,73.3,69.5,30.08,ENE,73,0.0,0.0,88,0.00,,,0.00,WeatherCatV1.02B3,2013-07-26 13:31:00,
2013-07-26 08:36:00,73.5,69.4,30.08,ENE,73,0.0,0.0,87,0.00,,,0.00,WeatherCatV1.02B3,2013-07-26 13:36:00,
2013-07-26 08:41:00,73.7,68.9,30.08,ENE,73,0.0,0.0,85,0.00,,,0.00,WeatherCatV1.02B3,2013-07-26 13:41:00,
2013-07-26 08:46:00,74.0,69.2,30.08,ENE,73,0.0,0.0,85,0.00,,,0.00,WeatherCatV1.02B3,2013-07-26 13:46:00,
2013-07-26 08:51:00,74.3,68.8,30.08,ENE,73,0.0,0.0,83,0.00,,,0.00,WeatherCatV1.02B3,2013-07-26 13:51:00,
2013-07-26 08:56:00,74.6,69.4,30.08,ENE,73,0.0,0.0,84,0.00,,,0.00,WeatherCatV1.02B3,2013-07-26 13:56:00,
2013-07-26 09:01:00,74.9,69.4,30.08,SSW,211,1.0,1.0,83,0.00,,,0.00,WeatherCatV1.02B3,2013-07-26 14:01:00,
2013-07-26 09:06:00,75.2,69.3,30.08,SSW,204,0.0,0.0,82,0.00,,,0.00,WeatherCatV1.02B3,2013-07-26 14:06:00,
2013-07-26 09:11:00,75.7,69.8,30.08,SSW,204,0.0,0.0,82,0.00,,,0.00,WeatherCatV1.02B3,2013-07-26 14:11:00,
2013-07-26 09:16:00,76.0,69.4,30.08,SSW,204,0.0,0.0,80,0.00,,,0.00,WeatherCatV1.02B3,2013-07-26 14:16:00,
2013-07-26 09:21:00,76.4,69.8,30.08,SSW,204,0.0,0.0,80,0.00,,,0.00,WeatherCatV1.02B3,2013-07-26 14:21:00,
2013-07-26 09:26:00,76.7,68.5,30.08,SW,221,0.0,2.0,76,0.00,,,0.00,WeatherCatV1.02B3,2013-07-26 14:26:00,
2013-07-26 09:31:00,76.9,68.7,30.09,SW,223,0.0,0.0,76,0.00,,,0.00,WeatherCatV1.02B3,2013-07-26 14:31:00,
2013-07-26 09:36:00,77.2,68.6,30.09,West,267,0.0,1.0,75,0.00,,,0.00,WeatherCatV1.02B3,2013-07-26 14:36:00,
2013-07-26 09:41:00,77.4,68.8,30.09,West,267,0.0,1.0,75,0.00,,,0.00,WeatherCatV1.02B3,2013-07-26 14:41:00,
2013-07-26 09:46:00,77.8,69.2,30.09,West,267,0.0,0.0,75,0.00,,,0.00,WeatherCatV1.02B3,2013-07-26 14:46:00,
2013-07-26 09:51:00,78.3,69.3,30.09,West,267,0.0,0.0,74,0.00,,,0.00,WeatherCatV1.02B3,2013-07-26 14:51:00,
2013-07-26 09:56:00,78.5,68.7,30.09,West,267,0.0,1.0,72,0.00,,,0.00,WeatherCatV1.02B3,2013-07-26 14:56:00,
2013-07-26 10:01:00,78.9,69.1,30.09,West,275,0.0,0.0,72,0.00,,,0.00,WeatherCatV1.02B3,2013-07-26 15:01:00,
2013-07-26 10:06:00,79.2,69.0,30.08,West,279,0.0,2.0,71,0.00,,,0.00,WeatherCatV1.02B3,2013-07-26 15:06:00,
2013-07-26 10:11:00,79.4,67.9,30.09,West,279,0.0,2.0,68,0.00,,,0.00,WeatherCatV1.02B3,2013-07-26 15:11:00,
2013-07-26 10:16:00,79.4,68.3,30.08,WNW,283,0.0,1.0,69,0.00,,,0.00,WeatherCatV1.02B3,2013-07-26 15:16:00,
2013-07-26 10:21:00,79.6,68.9,30.08,WNW,283,0.0,2.0,70,0.00,,,0.00,WeatherCatV1.02B3,2013-07-26 15:21:00,
2013-07-26 10:26:00,79.8,68.7,30.08,WNW,284,0.0,0.0,69,0.00,,,0.00,WeatherCatV1.02B3,2013-07-26 15:26:00,
2013-07-26 10:31:00,80.0,69.7,30.08,WNW,284,0.0,0.0,71,0.00,,,0.00,WeatherCatV1.02B3,2013-07-26 15:31:00,
2013-07-26 10:36:00,80.4,68.4,30.08,NW,305,0.0,0.0,67,0.00,,,0.00,WeatherCatV1.02B3,2013-07-26 15:36:00,
2013-07-26 10:41:00,80.7,67.8,30.08,NW,305,0.0,1.0,65,0.00,,,0.00,WeatherCatV1.02B3,2013-07-26 15:41:00,
2013-07-26 10:46:00,81.2,67.8,30.08,NNW,327,0.0,1.0,64,0.00,,,0.00,WeatherCatV1.02B3,2013-07-26 15:46:00,
2013-07-26 10:51:00,81.5,68.6,30.08,NNW,327,0.0,0.0,65,0.00,,,0.00,WeatherCatV1.02B3,2013-07-26 15:51:00,
2013-07-26 10:56:00,81.7,68.3,30.08,NNW,327,0.0,0.0,64,0.00,,,0.00,WeatherCatV1.02B3,2013-07-26 15:56:00,
2013-07-26 11:01:00,82.0,67.7,30.08,NNW,327,0.0,1.0,62,0.00,,,0.00,WeatherCatV1.02B3,2013-07-26 16:01:00,
2013-07-26 11:06:00,82.1,66.8,30.08,NNW,327,0.0,0.0,60,0.00,,,0.00,WeatherCatV1.02B3,2013-07-26 16:06:00,
2013-07-26 11:11:00,82.3,67.0,30.08,NNW,327,0.0,0.0,60,0.00,,,0.00,WeatherCatV1.02B3,2013-07-26 16:11:00,
2013-07-26 11:16:00,82.7,66.4,30.08,NW,318,0.0,1.0,58,0.00,,,0.00,WeatherCatV1.02B3,2013-07-26 16:16:00,
2013-07-26 11:21:00,83.3,67.4,30.08,NW,318,0.0,0.0,59,0.00,,,0.00,WeatherCatV1.02B3,2013-07-26 16:21:00,
2013-07-26 11:26:00,83.4,66.5,30.08,NW,318,0.0,0.0,57,0.00,,,0.00,WeatherCatV1.02B3,2013-07-26 16:26:00,
2013-07-26 11:31:00,83.6,65.7,30.08,NW,318,0.0,1.0,55,0.00,,,0.00,WeatherCatV1.02B3,2013-07-26 16:31:00,
2013-07-26 11:36:00,83.6,66.7,30.09,NW,318,0.0,0.0,57,0.00,,,0.00,WeatherCatV1.02B3,2013-07-26 16:36:00,
2013-07-26 11:41:00,83.9,67.5,30.08,West,259,0.0,1.0,58,0.00,,,0.00,WeatherCatV1.02B3,2013-07-26 16:41:00,
2013-07-26 11:46:00,84.0,67.6,30.08,WNW,296,0.0,1.0,58,0.00,,,0.00,WeatherCatV1.02B3,2013-07-26 16:46:00,
2013-07-26 11:51:00,84.3,68.4,30.08,NNW,343,1.0,3.0,59,0.00,,,0.00,WeatherCatV1.02B3,2013-07-26 16:51:00,
2013-07-26 11:56:00,84.6,67.1,30.08,NNW,343,0.0,0.0,56,0.00,,,0.00,WeatherCatV1.02B3,2013-07-26 16:56:00,
2013-07-26 12:01:00,84.8,66.3,30.08,NNE,17,2.0,3.0,54,0.00,,,0.00,WeatherCatV1.02B3,2013-07-26 17:01:00,
2013-07-26 12:06:00,84.8,65.2,30.08,NNW,329,0.0,1.0,52,0.00,,,0.00,WeatherCatV1.02B3,2013-07-26 17:06:00,
2013-07-26 12:11:00,85.0,65.4,30.08,WNW,297,0.0,1.0,52,0.00,,,0.00,WeatherCatV1.02B3,2013-07-26 17:11:00,
2013-07-26 12:16:00,85.4,65.2,30.07,NW,326,0.0,1.0,51,0.00,,,0.00,WeatherCatV1.02B3,2013-07-26 17:16:00,
2013-07-26 12:21:00,85.6,66.5,30.07,NNE,30,0.0,4.0,53,0.00,,,0.00,WeatherCatV1.02B3,2013-07-26 17:21:00,
2013-07-26 12:26:00,85.9,66.7,30.07,NW,313,1.0,2.0,53,0.00,,,0.00,WeatherCatV1.02B3,2013-07-26 17:26:00,
2013-07-26 12:31:00,85.9,66.7,30.07,NNW,334,0.0,0.0,53,0.00,,,0.00,WeatherCatV1.02B3,2013-07-26 17:31:00,
2013-07-26 12:36:00,86.1,66.9,30.07,NE,36,0.0,4.0,53,0.00,,,0.00,WeatherCatV1.02B3,2013-07-26 17:36:00,
2013-07-26 12:41:00,86.3,66.0,30.07,NNE,25,1.0,3.0,51,0.00,,,0.00,WeatherCatV1.02B3,2013-07-26 17:41:00,
2013-07-26 12:46:00,86.5,64.4,30.07,NW,312,0.0,1.0,48,0.00,,,0.00,WeatherCatV1.02B3,2013-07-26 17:46:00,
2013-07-26 12:51:00,86.7,65.8,30.07,NE,48,1.0,6.0,50,0.00,,,0.00,WeatherCatV1.02B3,2013-07-26 17:51:00,
2013-07-26 12:56:00,86.7,65.8,30.07,NW,311,0.0,4.0,50,0.00,,,0.00,WeatherCatV1.02B3,2013-07-26 17:56:00,
2013-07-26 13:01:00,86.8,65.9,30.06,North,5,3.0,7.0,50,0.00,,,0.00,WeatherCatV1.02B3,2013-07-26 18:01:00,
2013-07-26 13:06:00,87.0,66.1,30.06,West,274,3.0,6.0,50,0.00,,,0.00,WeatherCatV1.02B3,2013-07-26 18:06:00,
2013-07-26 13:11:00,86.9,66.6,30.06,NNE,24,1.0,7.0,51,0.00,,,0.00,WeatherCatV1.02B3,2013-07-26 18:11:00,
2013-07-26 13:16:00,87.2,66.8,30.06,NE,38,1.0,5.0,51,0.00,,,0.00,WeatherCatV1.02B3,2013-07-26 18:16:00,
2013-07-26 13:21:00,87.2,66.8,30.06,NNW,340,1.0,4.0,51,0.00,,,0.00,WeatherCatV1.02B3,2013-07-26 18:21:00,
2013-07-26 13:26:00,87.3,66.3,30.06,NNE,30,1.0,4.0,50,0.00,,,0.00,WeatherCatV1.02B3,2013-07-26 18:26:00,
2013-07-26 13:31:00,87.0,67.2,30.06,WNW,288,3.0,4.0,52,0.00,,,0.00,WeatherCatV1.02B3,2013-07-26 18:31:00,
2013-07-26 13:36:00,86.7,66.9,30.06,NE,35,1.0,3.0,52,0.00,,,0.00,WeatherCatV1.02B3,2013-07-26 18:36:00,
2013-07-26 13:41:00,86.7,67.5,30.06,NNW,338,0.0,1.0,53,0.00,,,0.00,WeatherCatV1.02B3,2013-07-26 18:41:00,
2013-07-26 13:46:00,87.1,69.5,30.05,NNW,340,0.0,1.0,56,0.00,,,0.00,WeatherCatV1.02B3,2013-07-26 18:46:00,
2013-07-26 13:51:00,87.7,67.9,30.05,NNW,333,0.0,1.0,52,0.00,,,0.00,WeatherCatV1.02B3,2013-07-26 18:51:00,
2013-07-26 13:56:00,87.6,67.8,30.05,West,278,0.0,2.0,52,0.00,,,0.00,WeatherCatV1.02B3,2013-07-26 18:56:00,
2013-07-26 14:01:00,87.5,68.8,30.05,WNW,284,0.0,0.0,54,0.00,,,0.00,WeatherCatV1.02B3,2013-07-26 19:01:00,
2013-07-26 14:06:00,87.5,68.2,30.05,WNW,294,1.0,2.0,53,0.00,,,0.00,WeatherCatV1.02B3,2013-07-26 19:06:00,
2013-07-26 14:11:00,87.4,68.1,30.05,NE,41,0.0,3.0,53,0.00,,,0.00,WeatherCatV1.02B3,2013-07-26 19:11:00,
2013-07-26 14:16:00,87.6,67.2,30.05,WNW,286,0.0,3.0,51,0.00,,,0.00,WeatherCatV1.02B3,2013-07-26 19:16:00,
2013-07-26 14:21:00,87.5,67.7,30.05,WNW,296,0.0,0.0,52,0.00,,,0.00,WeatherCatV1.02B3,2013-07-26 19:21:00,
2013-07-26 14:26:00,89.5,70.6,30.05,ESE,110,0.0,1.0,54,0.00,,,0.00,WeatherCatV1.02B3,2013-07-26 19:26:00,
2013-07-26 14:31:00,89.0,69.0,30.05,WNW,288,2.0,5.0,52,0.00,,,0.00,WeatherCatV1.02B3,2013-07-26 19:31:00,
2013-07-26 14:36:00,88.0,68.1,30.04,North,355,0.0,3.0,52,0.00,,,0.00,WeatherCatV1.02B3,2013-07-26 19:36:00,
2013-07-26 14:41:00,88.1,69.9,30.04,NNW,335,0.0,0.0,55,0.00,,,0.00,WeatherCatV1.02B3,2013-07-26 19:41:00,
2013-07-26 14:46:00,88.1,67.7,30.04,NW,317,0.0,2.0,51,0.00,,,0.00,WeatherCatV1.02B3,2013-07-26 19:46:00,
2013-07-26 14:51:00,87.4,69.7,30.04,NNE,24,1.0,3.0,56,0.00,,,0.00,WeatherCatV1.02B3,2013-07-26 19:51:00,
2013-07-26 14:56:00,87.1,68.9,30.04,NW,311,1.0,2.0,55,0.00,,,0.00,WeatherCatV1.02B3,2013-07-26 19:56:00,
2013-07-26 15:01:00,87.1,70.0,30.04,NNW,346,0.0,3.0,57,0.00,,,0.00,WeatherCatV1.02B3,2013-07-26 20:01:00,
2013-07-26 15:06:00,86.8,69.7,30.04,NNE,20,0.0,2.0,57,0.00,,,0.00,WeatherCatV1.02B3,2013-07-26 20:06:00,
2013-07-26 15:11:00,86.5,69.4,30.04,NW,315,1.0,4.0,57,0.00,,,0.00,WeatherCatV1.02B3,2013-07-26 20:11:00,
2013-07-26 15:16:00,86.3,70.2,30.04,NNE,22,0.0,3.0,59,0.00,,,0.00,WeatherCatV1.02B3,2013-07-26 20:16:00,
2013-07-26 15:21:00,86.4,69.8,30.04,NW,314,3.0,5.0,58,0.00,,,0.00,WeatherCatV1.02B3,2013-07-26 20:21:00,
2013-07-26 15:26:00,86.2,69.7,30.04,WNW,294,3.0,3.0,58,0.00,,,0.00,WeatherCatV1.02B3,2013-07-26 20:26:00,
2013-07-26 15:31:00,86.3,70.7,30.03,NNE,29,0.0,3.0,60,0.00,,,0.00,WeatherCatV1.02B3,2013-07-26 20:31:00,
2013-07-26 15:36:00,86.8,70.7,30.03,NNE,26,1.0,1.0,59,0.00,,,0.00,WeatherCatV1.02B3,2013-07-26 20:36:00,
2013-07-26 15:41:00,86.8,71.2,30.03,NNW,346,0.0,1.0,60,0.00,,,0.00,WeatherCatV1.02B3,2013-07-26 20:41:00,
2013-07-26 15:46:00,86.7,71.1,30.03,ENE,78,1.0,4.0,60,0.00,,,0.00,WeatherCatV1.02B3,2013-07-26 20:46:00,
2013-07-26 15:51:00,86.7,71.1,30.03,North,350,0.0,4.0,60,0.00,,,0.00,WeatherCatV1.02B3,2013-07-26 20:51:00,
2013-07-26 15:56:00,86.6,70.5,30.03,NW,317,3.0,3.0,59,0.00,,,0.00,WeatherCatV1.02B3,2013-07-26 20:56:00,
2013-07-26 16:01:00,86.5,70.9,30.03,North,11,0.0,2.0,60,0.00,,,0.00,WeatherCatV1.02B3,2013-07-26 21:01:00,
2013-07-26 16:06:00,86.1,70.6,30.03,West,277,0.0,4.0,60,0.00,,,0.00,WeatherCatV1.02B3,2013-07-26 21:06:00,
2013-07-26 16:11:00,85.8,70.8,30.03,NNE,16,0.0,3.0,61,0.00,,,0.00,WeatherCatV1.02B3,2013-07-26 21:11:00,
2013-07-26 16:16:00,85.7,70.7,30.03,NNE,16,0.0,0.0,61,0.00,,,0.00,WeatherCatV1.02B3,2013-07-26 21:16:00,
2013-07-26 16:21:00,85.8,71.7,30.03,East,80,0.0,5.0,63,0.00,,,0.00,WeatherCatV1.02B3,2013-07-26 21:21:00,
2013-07-26 16:26:00,85.8,70.8,30.03,NW,306,0.0,2.0,61,0.00,,,0.00,WeatherCatV1.02B3,2013-07-26 21:26:00,
2013-07-26 16:31:00,85.5,71.0,30.03,NW,314,0.0,0.0,62,0.00,,,0.00,WeatherCatV1.02B3,2013-07-26 21:31:00,
2013-07-26 16:36:00,85.4,71.3,30.03,NW,314,0.0,1.0,63,0.00,,,0.00,WeatherCatV1.02B3,2013-07-26 21:36:00,
2013-07-26 16:41:00,85.4,70.9,30.03,NW,313,0.0,1.0,62,0.00,,,0.00,WeatherCatV1.02B3,2013-07-26 21:41:00,
2013-07-26 16:46:00,85.3,71.2,30.03,NW,313,0.0,0.0,63,0.00,,,0.00,WeatherCatV1.02B3,2013-07-26 21:46:00,
2013-07-26 16:51:00,85.5,71.4,30.02,NNE,19,0.0,0.0,63,0.00,,,0.00,WeatherCatV1.02B3,2013-07-26 21:51:00,
2013-07-26 16:56:00,85.9,71.3,30.02,North,355,0.0,1.0,62,0.00,,,0.00,WeatherCatV1.02B3,2013-07-26 21:56:00,
2013-07-26 17:01:00,85.8,71.7,30.02,North,355,0.0,0.0,63,0.00,,,0.00,WeatherCatV1.02B3,2013-07-26 22:01:00,
2013-07-26 17:06:00,85.7,71.1,30.02,North,355,0.0,0.0,62,0.00,,,0.00,WeatherCatV1.02B3,2013-07-26 22:06:00,
2013-07-26 17:11:00,85.5,71.0,30.02,NNW,346,1.0,1.0,62,0.00,,,0.00,WeatherCatV1.02B3,2013-07-26 22:11:00,
2013-07-26 17:16:00,85.2,70.7,30.02,NNW,346,0.0,0.0,62,0.00,,,0.00,WeatherCatV1.02B3,2013-07-26 22:16:00,
2013-07-26 17:21:00,85.1,71.1,30.02,NNW,346,0.0,0.0,63,0.00,,,0.00,WeatherCatV1.02B3,2013-07-26 22:21:00,
2013-07-26 17:26:00,85.0,71.0,30.02,NW,311,1.0,2.0,63,0.00,,,0.00,WeatherCatV1.02B3,2013-07-26 22:26:00,
2013-07-26 17:31:00,84.8,70.8,30.02,NNE,33,1.0,2.0,63,0.00,,,0.00,WeatherCatV1.02B3,2013-07-26 22:31:00,
2013-07-26 17:36:00,84.8,71.2,30.02,ENE,74,0.0,1.0,64,0.00,,,0.00,WeatherCatV1.02B3,2013-07-26 22:36:00,
2013-07-26 17:41:00,84.8,71.2,30.01,North,355,0.0,2.0,64,0.00,,,0.00,WeatherCatV1.02B3,2013-07-26 22:41:00,
2013-07-26 17:46:00,84.7,71.1,30.01,NE,38,0.0,0.0,64,0.00,,,0.00,WeatherCatV1.02B3,2013-07-26 22:46:00,
2013-07-26 17:52:00,84.7,71.1,30.02,NE,38,0.0,0.0,64,0.00,,,0.00,WeatherCatV1.02B3,2013-07-26 22:52:00,
2013-07-26 17:57:00,84.6,71.0,30.02,NNE,13,0.0,2.0,64,0.00,,,0.00,WeatherCatV1.02B3,2013-07-26 22:57:00,
2013-07-26 18:02:00,84.5,71.0,30.02,NNE,13,0.0,0.0,64,0.00,,,0.00,WeatherCatV1.02B3,2013-07-26 23:02:00,
2013-07-26 18:07:00,84.5,71.0,30.02,NNE,13,0.0,0.0,64,0.00,,,0.00,WeatherCatV1.02B3,2013-07-26 23:07:00,
2013-07-26 18:12:00,84.3,70.8,30.01,NNE,13,0.0,0.0,64,0.00,,,0.00,WeatherCatV1.02B3,2013-07-26 23:12:00,
2013-07-26 18:17:00,84.1,70.6,30.01,NE,51,0.0,1.0,64,0.00,,,0.00,WeatherCatV1.02B3,2013-07-26 23:17:00,
2013-07-26 18:22:00,83.9,70.4,30.01,NE,51,0.0,1.0,64,0.00,,,0.00,WeatherCatV1.02B3,2013-07-26 23:22:00,
2013-07-26 18:27:00,83.8,70.3,30.01,NE,51,0.0,1.0,64,0.00,,,0.00,WeatherCatV1.02B3,2013-07-26 23:27:00,
2013-07-26 18:32:00,83.6,70.1,30.01,East,80,0.0,0.0,64,0.00,,,0.00,WeatherCatV1.02B3,2013-07-26 23:32:00,
2013-07-26 18:37:00,83.5,70.0,30.01,NE,34,0.0,0.0,64,0.00,,,0.00,WeatherCatV1.02B3,2013-07-26 23:37:00,
2013-07-26 18:42:00,83.4,70.4,30.01,NE,34,0.0,0.0,65,0.00,,,0.00,WeatherCatV1.02B3,2013-07-26 23:42:00,
2013-07-26 18:47:00,83.3,70.3,30.01,NE,34,0.0,0.0,65,0.00,,,0.00,WeatherCatV1.02B3,2013-07-26 23:47:00,
2013-07-26 18:52:00,83.3,70.3,30.01,NE,36,0.0,0.0,65,0.00,,,0.00,WeatherCatV1.02B3,2013-07-26 23:52:00,
2013-07-26 18:57:00,83.3,70.3,30.00,NE,36,0.0,0.0,65,0.00,,,0.00,WeatherCatV1.02B3,2013-07-26 23:57:00,
2013-07-26 19:02:00,83.4,70.4,30.00,NE,36,0.0,1.0,65,0.00,,,0.00,WeatherCatV1.02B3,2013-07-27 00:02:00,
2013-07-26 19:07:00,83.4,70.4,30.00,NE,36,0.0,1.0,65,0.00,,,0.00,WeatherCatV1.02B3,2013-07-27 00:07:00,
2013-07-26 19:12:00,83.3,70.3,30.00,NE,36,0.0,0.0,65,0.00,,,0.00,WeatherCatV1.02B3,2013-07-27 00:12:00,
2013-07-26 19:17:00,83.2,70.2,30.00,NE,36,0.0,1.0,65,0.00,,,0.00,WeatherCatV1.02B3,2013-07-27 00:17:00,
2013-07-26 19:22:00,83.0,70.0,30.00,NE,36,0.0,1.0,65,0.00,,,0.00,WeatherCatV1.02B3,2013-07-27 00:22:00,
2013-07-26 19:27:00,82.9,70.3,30.00,NE,36,0.0,1.0,66,0.00,,,0.00,WeatherCatV1.02B3,2013-07-27 00:27:00,
2013-07-26 19:32:00,82.8,70.3,29.99,NE,36,0.0,0.0,66,0.00,,,0.00,WeatherCatV1.02B3,2013-07-27 00:32:00,
2013-07-26 19:37:00,82.6,70.1,30.00,NE,36,0.0,0.0,66,0.00,,,0.00,WeatherCatV1.02B3,2013-07-27 00:37:00,
2013-07-26 19:42:00,82.4,70.3,30.00,NE,36,0.0,0.0,67,0.00,,,0.00,WeatherCatV1.02B3,2013-07-27 00:42:00,
2013-07-26 19:47:00,82.3,70.2,30.00,NE,36,0.0,0.0,67,0.00,,,0.00,WeatherCatV1.02B3,2013-07-27 00:47:00,
2013-07-26 19:52:00,82.2,70.6,29.99,NE,36,0.0,0.0,68,0.00,,,0.00,WeatherCatV1.02B3,2013-07-27 00:52:00,
2013-07-26 19:57:00,82.0,70.4,29.98,NE,36,0.0,0.0,68,0.00,,,0.00,WeatherCatV1.02B3,2013-07-27 00:57:00,
2013-07-26 20:02:00,81.9,70.7,29.98,NE,36,0.0,0.0,69,0.00,,,0.00,WeatherCatV1.02B3,2013-07-27 01:02:00,
2013-07-26 20:07:00,81.8,70.6,29.98,NE,36,0.0,0.0,69,0.00,,,0.00,WeatherCatV1.02B3,2013-07-27 01:07:00,
2013-07-26 20:12:00,81.6,70.8,29.98,NE,36,0.0,0.0,70,0.00,,,0.00,WeatherCatV1.02B3,2013-07-27 01:12:00,
2013-07-26 20:17:00,81.4,71.1,29.98,NE,36,0.0,0.0,71,0.00,,,0.00,WeatherCatV1.02B3,2013-07-27 01:17:00,
2013-07-26 20:22:00,81.2,70.9,29.98,NE,36,0.0,0.0,71,0.00,,,0.00,WeatherCatV1.02B3,2013-07-27 01:22:00,
2013-07-26 20:27:00,81.1,71.2,29.98,NE,36,0.0,0.0,72,0.00,,,0.00,WeatherCatV1.02B3,2013-07-27 01:27:00,
2013-07-26 20:32:00,80.9,71.4,29.98,NE,36,0.0,0.0,73,0.00,,,0.00,WeatherCatV1.02B3,2013-07-27 01:32:00,
2013-07-26 20:37:00,80.7,71.2,29.98,NE,36,0.0,0.0,73,0.00,,,0.00,WeatherCatV1.02B3,2013-07-27 01:37:00,
2013-07-26 20:42:00,80.6,71.1,29.98,NE,36,0.0,0.0,73,0.00,,,0.00,WeatherCatV1.02B3,2013-07-27 01:42:00,
2013-07-26 20:47:00,80.4,70.9,29.98,NE,36,0.0,0.0,73,0.00,,,0.00,WeatherCatV1.02B3,2013-07-27 01:47:00,
2013-07-26 20:52:00,80.2,70.7,29.98,NE,36,0.0,0.0,73,0.00,,,0.00,WeatherCatV1.02B3,2013-07-27 01:52:00,
2013-07-26 20:57:00,80.1,71.0,29.98,NE,36,0.0,0.0,74,0.00,,,0.00,WeatherCatV1.02B3,2013-07-27 01:57:00,
2013-07-26 21:02:00,80.0,71.3,29.99,NE,36,0.0,0.0,75,0.00,,,0.00,WeatherCatV1.02B3,2013-07-27 02:02:00,
2013-07-26 21:07:00,79.9,71.2,29.99,NE,36,0.0,0.0,75,0.00,,,0.00,WeatherCatV1.02B3,2013-07-27 02:07:00,
2013-07-26 21:12:00,79.7,71.1,29.99,NE,36,0.0,0.0,75,0.00,,,0.00,WeatherCatV1.02B3,2013-07-27 02:12:00,
2013-07-26 21:17:00,79.6,71.0,29.99,NE,36,0.0,0.0,75,0.00,,,0.00,WeatherCatV1.02B3,2013-07-27 02:17:00,
2013-07-26 21:22:00,79.5,71.3,29.99,NE,36,0.0,0.0,76,0.00,,,0.00,WeatherCatV1.02B3,2013-07-27 02:22:00,
2013-07-26 21:27:00,79.4,71.5,30.00,NE,36,0.0,0.0,77,0.00,,,0.00,WeatherCatV1.02B3,2013-07-27 02:27:00,
2013-07-26 21:32:00,79.3,71.4,30.00,NE,36,0.0,0.0,77,0.00,,,0.00,WeatherCatV1.02B3,2013-07-27 02:32:00,
2013-07-26 21:37:00,79.2,71.3,29.99,NE,36,0.0,0.0,77,0.00,,,0.00,WeatherCatV1.02B3,2013-07-27 02:37:00,
2013-07-26 21:42:00,79.2,71.3,29.99,NE,36,0.0,0.0,77,0.00,,,0.00,WeatherCatV1.02B3,2013-07-27 02:42:00,
2013-07-26 21:47:00,79.1,71.6,29.99,NE,36,0.0,0.0,78,0.00,,,0.00,WeatherCatV1.02B3,2013-07-27 02:47:00,
2013-07-26 21:52:00,78.9,71.4,29.99,NE,36,0.0,0.0,78,0.00,,,0.00,WeatherCatV1.02B3,2013-07-27 02:52:00,
2013-07-26 21:57:00,78.8,71.3,29.99,NE,36,0.0,0.0,78,0.00,,,0.00,WeatherCatV1.02B3,2013-07-27 02:57:00,
2013-07-26 22:02:00,78.7,71.2,29.99,NE,36,0.0,0.0,78,0.00,,,0.00,WeatherCatV1.02B3,2013-07-27 03:02:00,
2013-07-26 22:07:00,78.7,71.6,29.99,NE,36,0.0,0.0,79,0.00,,,0.00,WeatherCatV1.02B3,2013-07-27 03:07:00,
2013-07-26 22:12:00,78.5,71.1,29.99,NE,36,0.0,0.0,78,0.00,,,0.00,WeatherCatV1.02B3,2013-07-27 03:12:00,
2013-07-26 22:17:00,78.4,71.0,29.99,NE,36,0.0,0.0,78,0.00,,,0.00,WeatherCatV1.02B3,2013-07-27 03:17:00,
2013-07-26 22:22:00,78.3,70.9,29.99,NE,36,0.0,0.0,78,0.00,,,0.00,WeatherCatV1.02B3,2013-07-27 03:22:00,
2013-07-26 22:27:00,78.3,70.9,29.99,NE,36,0.0,1.0,78,0.00,,,0.00,WeatherCatV1.02B3,2013-07-27 03:27:00,
2013-07-26 22:32:00,78.2,70.4,29.99,NE,36,0.0,0.0,77,0.00,,,0.00,WeatherCatV1.02B3,2013-07-27 03:32:00,
2013-07-26 22:37:00,78.1,70.3,29.99,NE,36,0.0,0.0,77,0.00,,,0.00,WeatherCatV1.02B3,2013-07-27 03:37:00,
2013-07-26 22:42:00,78.1,70.3,29.99,NE,36,0.0,0.0,77,0.00,,,0.00,WeatherCatV1.02B3,2013-07-27 03:42:00,
2013-07-26 22:47:00,78.0,70.2,29.99,NE,36,0.0,0.0,77,0.00,,,0.00,WeatherCatV1.02B3,2013-07-27 03:47:00,
2013-07-26 22:52:00,78.0,70.2,29.99,NE,36,0.0,0.0,77,0.00,,,0.00,WeatherCatV1.02B3,2013-07-27 03:52:00,
2013-07-26 22:57:00,77.9,70.1,29.99,NE,36,0.0,0.0,77,0.00,,,0.00,WeatherCatV1.02B3,2013-07-27 03:57:00,
2013-07-26 23:01:00,77.9,70.1,29.99,NE,36,0.0,0.0,77,0.00,,,0.00,WeatherCatV1.02B3,2013-07-27 04:01:00,
2013-07-26 23:06:00,77.8,70.4,29.99,NE,36,0.0,0.0,78,0.00,,,0.00,WeatherCatV1.02B3,2013-07-27 04:06:00,
2013-07-26 23:11:00,77.8,70.4,29.99,NE,36,0.0,0.0,78,0.00,,,0.00,WeatherCatV1.02B3,2013-07-27 04:11:00,
2013-07-26 23:16:00,77.7,70.3,29.99,NE,36,0.0,0.0,78,0.00,,,0.00,WeatherCatV1.02B3,2013-07-27 04:16:00,
2013-07-26 23:21:00,77.6,70.2,30.00,NE,36,0.0,0.0,78,0.00,,,0.00,WeatherCatV1.02B3,2013-07-27 04:21:00,
2013-07-26 23:26:00,77.6,70.2,30.00,NE,36,0.0,0.0,78,0.00,,,0.00,WeatherCatV1.02B3,2013-07-27 04:26:00,
2013-07-26 23:31:00,77.5,70.1,30.00,NE,36,0.0,0.0,78,0.00,,,0.00,WeatherCatV1.02B3,2013-07-27 04:31:00,
2013-07-26 23:36:00,77.5,70.1,30.00,NE,36,0.0,0.0,78,0.00,,,0.00,WeatherCatV1.02B3,2013-07-27 04:36:00,
2013-07-26 23:41:00,77.4,70.0,30.00,NE,36,0.0,0.0,78,0.00,,,0.00,WeatherCatV1.02B3,2013-07-27 04:41:00,
2013-07-26 23:46:00,77.4,70.4,30.00,NE,36,0.0,0.0,79,0.00,,,0.00,WeatherCatV1.02B3,2013-07-27 04:46:00,
2013-07-26 23:51:00,77.4,70.4,30.00,NE,36,0.0,0.0,79,0.00,,,0.00,WeatherCatV1.02B3,2013-07-27 04:51:00,
2013-07-26 23:56:00,77.3,70.3,29.99,NE,36,0.0,0.0,79,0.00,,,0.00,WeatherCatV1.02B3,2013-07-27 04:56:00,